Location: Owl River
(54.8872°N, 111.8867°W)
Time: 16:34:07
(UTC+00:00)

BlueWalker 3 - Pass Details

Date: 26 April 2024
Orbit: 481 x 494 km, 53.2° (Epoch: 26 May)

Event Time Altitude Azimuth Distance (km) Brightness Sun altitude
Rises 06:30:46 0° 282° (WNW) 2,582 5.9 -20.4°
Reaches altitude 10° 06:33:10 10° 270° (W) 1,698 4.8 -20.5°
Enters shadow 06:34:52 20° 249° (WSW) 1,193 3.7 -20.6°
